Location: Brantley
(31.5822°N, 86.2569°W)
Time: 18:21:03
(UTC+00:00)

Transit 2A Rocket - Pass Details

Date: 23 February 2026
Orbit: 583 x 900 km, 66.7° (Epoch: 12 March)

Event Time Altitude Azimuth Distance (km) Brightness Sun altitude
Rises 21:34:24 0° 257° (WSW) 3,491 9.6 24.0°
Reaches altitude 10° 21:38:29 10° 284° (WNW) 2,572 8.6 23.2°
Maximum altitude 21:41:08 13° 311° (NW) 2,360 7.9 22.7°
Drops below altitude 10° 21:43:49 10° 338° (NNW) 2,568 7.7 22.2°
Sets 21:47:55 0° 5° (N) 3,482 8.1 21.4°
